Tracking 28790 objects as of 19-Apr-2024
HD Live streaming from Space Station
objects crossing your sky now

CZ-4C R/B

Track CZ-4C R/B now!
10-day predictions


NORAD ID: 40112
Int'l Code: 2014-047D
Perigee: 649.9 km
Apogee: 1,365.8 km
Inclination: 63.4 °
Period: 105.1 minutes
Semi major axis: 7378 km
RCS: Unknown
Launch date: August 9, 2014
Source: People's Republic of China (PRC)
Launch site: Jiuquan Satellite Launch Center, China (JSC)

Note: This is a ROCKET BODY
Your satellite tracking list
Your tracking list is empty




NASA's NSSDC Master Catalog

Two Line Element Set (TLE):
1 40112U 14047D   24109.67356104  .00000101  00000-0  10306-3 0  9997
2 40112  63.4221 229.0719 0485110 359.3039   0.7268 13.69692857484633
Source of the keplerian elements: AFSPC